Location: Nied?wied?
(53.3665°N, 14.8184°E)
Time: 07:36:53
(UTC+00:00)

Cosmos 1777 Rocket - Visible Passes

Search period start: 21 June 2021 00:00
Search period end: 01 July 2021 00:00
Orbit: 758 x 776 km, 74.0° (Epoch: 20 June)

Date Brightness Start Highest point End Pass type
(mag) Time Alt. Az. Time Alt. Az. Time Alt. Az.
21 Jun 4.9 20:55:27 10° NNW 21:00:30 43° NE 21:05:32 10° SE visible
21 Jun 4.8 22:37:38 10° NW 22:42:32 39° WSW 22:46:06 17° SSW visible
22 Jun 5.4 20:18:11 10° NNW 20:22:52 30° NE 20:27:31 10° ESE visible
22 Jun 4.3 22:00:04 10° NNW 22:05:18 61° WSW 22:09:17 17° S visible
22 Jun 6.3 23:45:01 10° WNW 23:46:15 11° W 23:47:26 10° WSW visible
23 Jun 4.1 21:22:36 10° NNW 21:27:57 89° ENE 21:32:30 14° SSE visible
23 Jun 5.9 23:05:52 10° NW 23:09:16 18° W 23:12:40 10° SW visible
24 Jun 4.4 20:45:14 10° NNW 20:50:30 60° ENE 20:55:44 10° SE visible
24 Jun 5.4 22:27:49 10° NW 22:32:12 27° W 22:35:58 13° SSW visible
25 Jun 4.9 21:50:05 10° NW 21:55:02 41° WSW 21:59:14 14° S visible
26 Jun 4.3 21:12:31 10° NNW 21:17:46 64° WSW 21:22:31 13° S visible
26 Jun 6.3 22:57:08 10° WNW 22:58:45 11° W 23:00:22 10° WSW visible
27 Jun 4.1 20:35:04 10° NNW 20:40:25 86° ENE 20:45:44 10° SSE visible
27 Jun 6.0 22:18:14 10° NW 22:21:47 18° W 22:25:18 10° SW visible
28 Jun 5.5 21:40:14 10° NW 21:44:42 28° W 21:49:09 10° SSW visible
29 Jun 4.9 21:02:31 10° NW 21:07:31 43° WSW 21:12:29 10° S visible
30 Jun 4.3 20:24:58 10° NNW 20:30:15 66° WSW 20:35:29 10° SSE visible
30 Jun 6.4 22:09:20 10° WNW 22:11:16 12° W 22:13:12 10° WSW visible
